Wind_Speed
8 9 8 8 8 7 7 6 6 6 6 6 6 6 6 7 7 8 9 9 9 9 9 9 8 8 8 9 9 8 8 8 8 8 8 8 8 8 8 7 7 7 7
7 7 7 7 6 6 6 6 5 5 5 5 5 5 6 6 7 7 8 8 8 8 8 8 7 7 7 8 7 7 7 8 8 8 8 8 8 7 7 7 6 6 6
6 6 6 6 6 5 5 5 5 5 5 5 5 5 5 6 6 6 7 7 7 7 7 7 6 6 7 7 7 7 7 7 7 7 7 6 7 6 6 6 6 5 6
5 5 5 5 5 4 4 5 5 5 4 4 4 5 5 5 5 5 5 5 5 5 5 6 6 6 7 7 7 7 7 7 6 6 6 6 6 6 6 6 5 5 5
4 4 4 4 4 4 4 4 4 4 4 4 3 4 4 4 4 4 4 4 4 5 5 5 6 6 6 6 6 7 6 6 6 5 6 6 6 5 5 5 5 5 5
4 4 4 3 3 3 4 4 4 4 3 3 3 3 3 3 3 4 4 4 4 4 5 5 5 5 5 5 5 5 5 5 5 5 5 5 5 5 5 4 4 4 4
4 4 3 3 3 3 3 3 3 3 2 2 2 2 2 2 2 3 4 4 4 4 4 4 4 5 5 5 5 4 4 4 5 5 4 4 4 4 4 3 3 4 3
5 3 3 2 3 2 2 2 2 2 1 1 1 1 2 2 2 2 3 3 4 4 4 4 4 4 4 4 4 4 4 4 4 4 4 3 3 3 3 3 3 3 3
5 4 3 3 3 2 2 2 2 1 1 1 1 1 1 1 1 1 2 2 2 3 3 3 4 4 3 3 3 4 4 3 3 3 2 2 2 2 2 3 2 2 2
5 4 3 2 2 2 2 2 1 1 0 0 0 0 1 1 1 1 1 2 2 2 3 3 4 4 3 3 3 3 3 3 2 2 1 1 2 2 2 2 2 2 2
5 4 4 3 1 1 1 1 1 0 0 1 1 1 1 1 1 1 0 1 1 2 2 3 3 4 3 4 4 3 3 3 2 2 2 1 1 1 1 1 1 2 1
5 4 4 3 2 1 1 1 1 0 1 1 2 2 2 2 2 2 1 1 1 1 2 2 3 3 3 3 4 3 3 4 3 3 3 2 2 1 1 1 1 1 1
5 4 4 4 3 2 1 1 1 1 2 2 3 3 3 3 3 2 2 1 1 1 1 2 2 2 2 2 3 3 3 4 4 3 3 2 2 1 1 1 1 1 1
5 4 3 4 3 3 2 2 2 2 2 3 4 4 3 3 3 3 2 1 1 1 1 1 1 2 2 2 2 2 2 3 3 3 3 2 1 1 1 1 0 0 0
4 3 3 3 3 3 2 3 3 3 3 4 5 5 4 4 3 2 2 1 1 1 1 0 1 1 1 1 1 1 2 2 3 3 3 2 1 1 1 1 1 1 0
4 3 3 4 4 4 3 3 4 3 4 4 4 5 5 4 4 3 2 2 1 1 2 1 0 1 1 1 1 1 1 2 2 3 2 2 1 1 1 1 1 1 1
4 4 4 4 5 4 4 4 5 5 5 4 4 4 4 4 4 4 3 2 2 2 2 2 1 1 1 1 1 1 1 1 1 2 2 1 1 1 1 1 1 2 2
4 4 4 5 5 4 4 4 4 5 5 4 4 4 4 4 5 4 4 3 2 2 2 2 2 2 1 1 1 0 0 1 1 1 1 1 1 1 1 2 2 2 2
5 5 5 5 6 5 4 4 4 5 5 5 5 5 5 4 5 4 4 3 2 2 2 2 2 2 1 1 1 1 0 1 1 0 0 1 1 1 2 2 2 2 2
6 6 6 6 7 6 5 5 5 5 5 5 6 6 6 5 5 5 5 4 3 2 3 3 2 2 2 2 1 1 1 1 1 0 1 1 1 1 1 2 2 1 1
7 7 7 7 8 7 6 6 6 5 5 6 7 7 7 7 7 6 6 5 4 4 3 3 3 3 3 3 3 2 2 2 1 1 1 1 1 1 2 1 1 1 2
8 8 8 8 8 8 8 7 7 6 6 6 7 7 8 8 8 7 7 6 5 4 4 4 3 3 3 4 4 3 3 3 2 2 2 2 2 2 2 2 2 3 2
9 8 8 9 9 9 8 8 8 7 7 6 7 8 9 9 9 9 9 8 7 6 5 4 4 4 4 4 4 3 3 4 4 3 3 3 3 3 3 3 3 3 3
9 9 9 10 9 9 8 8 7 7 7 7 8 9 10 10 10 10 10 9 8 7 6 5 5 5 5 5 5 4 4 4 5 5 5 4 4 4 4 4 4 3 3
10 10 10 10 10 9 9 8 8 7 7 8 9 9 10 10 11 11 10 10 9 8 8 7 6 6 6 6 6 6 5 5 6 6 6 5 5 5 5 4 5 5 5
10 9 9 10 9 9 9 9 8 8 7 7 8 9 10 10 11 11 11 10 10 9 8 8 7 7 7 7 8 8 7 7 6 7 7 7 7 7 6 6 6 6 6
Wind_Direction
64 67 70 72 76 77 76 72 76 77 81 85 95 97 98 101 102 104 104 104 104 105 105 104 98 98 100 98 100 103 104 104 105 102 99 99 100 99 97 94 89 89 90
59 59 64 66 70 75 74 76 79 78 80 82 86 93 97 100 103 103 103 104 104 105 104 102 99 99 100 100 105 107 105 107 104 105 103 101 99 98 96 90 87 89 92
56 55 57 58 61 66 68 77 78 74 74 80 85 87 89 94 99 103 104 102 101 99 102 104 101 96 95 96 103 107 109 108 107 103 102 100 98 95 94 90 85 89 93
50 48 53 53 55 60 66 81 82 73 69 75 84 85 86 91 97 99 102 103 102 99 98 97 99 95 94 94 99 105 109 108 105 98 97 100 99 97 94 92 86 84 91
51 43 52 50 54 60 72 79 81 77 74 69 73 76 82 88 92 92 92 96 98 98 95 94 97 98 94 93 94 100 107 107 100 95 97 99 100 103 98 92 87 83 90
44 41 44 53 57 68 76 77 77 71 74 69 68 70 80 83 84 88 88 92 93 89 87 87 95 94 93 93 95 102 104 105 95 94 95 95 103 103 97 93 86 88 96
42 41 46 54 53 65 81 76 71 66 69 67 70 66 72 76 77 78 82 87 85 85 88 87 89 90 96 97 97 100 101 102 102 96 92 94 98 97 96 91 86 91 100
38 41 50 49 45 49 70 76 73 77 81 70 61 60 60 63 72 71 75 79 78 77 81 82 92 95 98 100 95 87 85 87 95 95 95 94 90 85 82 86 89 94 93
35 40 40 45 40 42 49 53 58 69 94 112 72 49 44 40 43 61 72 74 69 67 69 77 87 89 97 95 78 74 68 79 93 99 94 94 91 76 75 88 86 99 91
31 30 29 34 34 31 26 32 42 62 82 124 192 341 345 355 6 37 70 64 65 68 68 76 88 85 83 79 74 70 70 74 85 79 82 97 92 82 89 83 87 92 85
27 33 34 35 36 24 11 18 22 18 237 271 265 269 279 311 339 7 65 55 48 50 59 64 82 80 76 68 66 61 57 52 47 62 60 76 80 76 77 73 87 81 75
19 27 32 32 34 16 342 320 324 275 249 269 278 274 270 289 309 317 290 283 351 6 28 52 67 65 72 73 62 52 48 47 48 45 44 57 49 47 66 90 82 90 81
12 20 26 25 20 2 340 302 289 271 260 273 278 279 278 279 288 297 281 265 315 342 23 47 66 70 74 76 62 48 44 34 38 35 37 41 38 30 44 50 89 100 108
1 9 13 9 9 355 325 289 281 289 275 275 276 271 276 278 283 287 280 273 307 325 359 61 96 87 76 65 58 52 30 25 34 40 37 38 41 47 40 15 306 146 140
346 351 1 354 345 341 315 290 286 287 287 282 273 266 265 262 262 272 278 264 307 329 345 102 126 100 70 41 59 39 11 9 22 26 27 28 32 51 61 49 88 98 344
327 334 333 336 326 320 303 284 274 276 284 276 271 258 251 250 256 256 269 266 280 301 304 286 282 25 4 360 360 359 359 354 3 10 12 5 8 39 73 79 58 65 62
317 321 318 316 312 307 300 281 269 270 274 269 260 248 247 247 247 243 252 270 287 282 275 273 278 306 302 307 336 351 8 6 7 4 13 29 34 77 94 100 87 86 66
316 315 313 311 308 304 295 287 277 271 271 256 247 234 241 256 243 235 240 262 284 276 272 274 280 290 290 276 276 291 6 19 7 11 34 60 75 115 110 106 110 114 101
313 309 312 314 308 304 296 290 281 279 274 264 249 234 234 241 235 238 240 252 266 258 267 282 282 281 262 248 228 222 140 330 315 331 99 99 110 122 132 143 129 125 120
304 304 304 307 307 304 300 293 287 272 273 268 251 237 236 238 234 237 239 249 262 260 269 274 277 276 242 234 234 238 247 300 318 218 162 155 144 150 142 150 159 160 152
293 297 298 300 298 298 296 291 286 269 269 264 248 240 241 239 235 234 237 245 252 257 264 274 275 267 248 238 233 236 259 261 260 210 202 202 210 206 196 181 195 197 186
284 288 292 295 295 297 298 295 287 272 264 260 245 249 244 237 234 233 233 239 245 250 259 265 263 258 245 238 233 233 242 245 237 225 220 215 221 229 227 223 229 223 215
281 284 286 293 296 293 293 294 293 272 257 258 247 248 243 236 234 234 234 233 238 245 251 253 250 248 242 235 232 239 244 245 232 230 231 232 232 238 236 243 246 225 218
282 281 281 288 293 285 284 286 283 266 256 255 247 241 239 236 232 232 234 233 235 239 243 249 250 243 240 236 236 239 244 248 236 235 237 238 236 243 244 248 236 230 231
282 280 277 282 287 282 279 278 269 259 259 253 240 236 239 237 234 233 233 228 230 235 239 244 249 245 245 243 242 243 242 245 241 238 240 240 236 240 245 239 237 239 238
282 280 280 285 285 281 277 274 262 256 255 243 234 233 235 237 235 232 230 228 230 234 237 241 246 248 248 247 247 246 246 246 243 237 239 241 240 241 242 241 245 247 245
Height
5892 5891 5891 5891 5891 5892 5892 5892 5893 5893 5893 5893 5893 5893 5893 5892 5892 5892 5892 5891 5891 5891 5891 5891 5891 5890 5890 5891 5891 5891 5891 5891 5891 5891 5891 5891 5891 5891 5890 5890 5890 5890 5889
5893 5893 5893 5893 5893 5893 5893 5894 5894 5894 5895 5895 5895 5894 5894 5894 5894 5893 5893 5893 5893 5892 5892 5892 5892 5892 5892 5892 5892 5892 5892 5892 5892 5892 5892 5892 5892 5892 5891 5891 5891 5890 5890
5894 5894 5894 5894 5894 5894 5894 5895 5895 5896 5896 5896 5896 5896 5896 5895 5895 5895 5894 5894 5894 5894 5894 5893 5893 5893 5893 5893 5893 5893 5893 5893 5893 5893 5893 5893 5893 5893 5892 5892 5892 5892 5891
5895 5895 5895 5895 5895 5895 5895 5896 5896 5897 5897 5897 5897 5897 5897 5897 5896 5896 5896 5895 5895 5895 5895 5895 5894 5894 5894 5894 5894 5894 5894 5894 5894 5894 5894 5894 5894 5893 5893 5893 5893 5892 5892
5896 5896 5896 5896 5896 5896 5896 5896 5897 5897 5898 5898 5898 5898 5898 5898 5898 5897 5897 5897 5896 5896 5896 5896 5896 5895 5895 5895 5895 5894 5895 5895 5895 5894 5894 5895 5894 5894 5894 5894 5894 5893 5893
5897 5897 5897 5897 5897 5897 5897 5897 5898 5898 5899 5899 5899 5899 5899 5899 5899 5899 5898 5898 5897 5897 5897 5897 5897 5896 5896 5896 5895 5895 5895 5895 5895 5895 5895 5895 5895 5895 5894 5894 5894 5894 5894
5898 5898 5898 5898 5898 5898 5898 5898 5899 5899 5900 5900 5900 5900 5900 5900 5900 5900 5899 5899 5899 5898 5898 5898 5898 5897 5897 5897 5896 5896 5896 5895 5895 5896 5896 5896 5896 5895 5895 5895 5894 5894 5894
5898 5898 5898 5898 5898 5898 5899 5899 5899 5900 5900 5901 5901 5901 5901 5901 5901 5901 5900 5900 5899 5899 5899 5899 5898 5898 5898 5897 5897 5897 5896 5896 5896 5896 5896 5896 5896 5896 5896 5895 5895 5895 5894
5899 5899 5899 5899 5899 5899 5899 5899 5900 5900 5901 5901 5902 5902 5902 5902 5902 5901 5901 5901 5900 5900 5900 5899 5899 5899 5898 5898 5898 5897 5897 5897 5897 5897 5897 5896 5896 5896 5896 5895 5895 5895 5894
5899 5900 5899 5899 5899 5899 5900 5900 5900 5901 5901 5902 5902 5902 5902 5902 5902 5902 5902 5901 5901 5901 5900 5900 5900 5899 5899 5898 5898 5898 5897 5897 5897 5897 5897 5897 5896 5896 5896 5896 5895 5895 5894
5900 5900 5900 5900 5900 5900 5900 5900 5900 5901 5901 5902 5902 5903 5903 5903 5903 5902 5902 5902 5901 5901 5901 5901 5900 5900 5899 5899 5898 5898 5898 5897 5897 5897 5897 5897 5896 5896 5896 5896 5895 5895 5894
5900 5900 5900 5900 5900 5900 5900 5900 5901 5901 5901 5902 5902 5902 5902 5903 5903 5903 5902 5902 5902 5901 5901 5901 5901 5900 5900 5899 5899 5899 5898 5898 5898 5897 5897 5897 5896 5896 5896 5896 5895 5895 5894
5900 5900 5900 5900 5900 5900 5900 5900 5901 5901 5901 5902 5902 5902 5902 5902 5902 5902 5902 5902 5902 5902 5901 5901 5901 5901 5901 5900 5900 5899 5899 5899 5898 5897 5897 5896 5896 5896 5896 5896 5895 5895 5894
5900 5900 5900 5899 5900 5900 5900 5900 5900 5900 5901 5901 5901 5901 5901 5902 5902 5902 5902 5902 5902 5902 5901 5901 5902 5901 5901 5900 5900 5899 5899 5899 5898 5897 5897 5896 5896 5896 5896 5896 5895 5894 5894
5900 5899 5899 5899 5899 5899 5899 5899 5899 5900 5900 5900 5900 5900 5900 5901 5901 5902 5902 5902 5901 5901 5901 5901 5902 5901 5901 5900 5900 5900 5899 5899 5898 5898 5897 5896 5896 5896 5896 5895 5895 5894 5894
5900 5899 5899 5899 5898 5898 5898 5898 5898 5898 5898 5899 5899 5899 5899 5900 5900 5901 5901 5901 5901 5901 5901 5901 5901 5901 5901 5900 5900 5899 5899 5899 5898 5898 5897 5896 5896 5896 5896 5895 5895 5894 5894
5899 5898 5898 5898 5897 5897 5897 5897 5897 5897 5897 5897 5897 5898 5899 5899 5900 5900 5901 5901 5901 5901 5901 5901 5900 5900 5900 5900 5900 5899 5899 5899 5898 5898 5897 5897 5896 5896 5896 5895 5895 5894 5894
5897 5897 5897 5897 5896 5896 5896 5896 5895 5895 5895 5896 5896 5897 5897 5898 5898 5899 5900 5900 5900 5900 5900 5900 5900 5900 5900 5900 5899 5899 5899 5899 5898 5898 5897 5897 5896 5896 5896 5895 5895 5894 5894
5896 5896 5896 5895 5895 5895 5895 5894 5894 5894 5894 5894 5895 5895 5896 5897 5897 5898 5899 5900 5900 5900 5900 5900 5900 5900 5899 5899 5899 5899 5899 5899 5898 5897 5897 5896 5896 5896 5896 5895 5895 5895 5894
5894 5894 5894 5894 5893 5893 5893 5892 5892 5892 5892 5892 5893 5893 5894 5895 5896 5897 5898 5898 5899 5899 5899 5899 5899 5899 5899 5899 5899 5899 5899 5899 5898 5897 5897 5896 5896 5896 5895 5895 5895 5895 5894
5892 5892 5892 5891 5891 5891 5890 5890 5890 5890 5890 5890 5891 5892 5893 5894 5895 5896 5896 5897 5898 5898 5898 5899 5899 5899 5898 5898 5899 5899 5898 5898 5898 5897 5897 5896 5896 5896 5896 5895 5895 5895 5894
5890 5890 5890 5889 5889 5888 5888 5888 5887 5887 5887 5888 5889 5890 5891 5892 5893 5893 5895 5895 5896 5896 5897 5897 5897 5898 5898 5898 5898 5898 5898 5898 5897 5897 5897 5897 5896 5896 5895 5895 5895 5895 5894
5889 5888 5887 5887 5886 5886 5886 5886 5885 5885 5885 5886 5887 5888 5889 5890 5891 5891 5892 5894 5894 5895 5895 5896 5896 5896 5897 5897 5897 5897 5897 5897 5897 5897 5897 5896 5896 5896 5896 5895 5895 5894 5894
5886 5886 5885 5885 5884 5883 5883 5883 5883 5883 5883 5884 5884 5885 5886 5887 5888 5889 5890 5891 5892 5893 5894 5894 5895 5895 5895 5895 5896 5896 5896 5896 5896 5896 5896 5896 5895 5895 5895 5895 5894 5894 5893
5884 5883 5883 5882 5881 5881 5880 5880 5880 5880 5881 5881 5882 5883 5884 5885 5886 5887 5888 5889 5890 5891 5891 5892 5893 5893 5894 5894 5894 5894 5894 5895 5895 5895 5895 5895 5895 5894 5894 5894 5893 5893 5893
5881 5881 5880 5880 5879 5878 5878 5877 5877 5878 5878 5878 5879 5880 5881 5882 5883 5885 5886 5887 5888 5889 5889 5890 5891 5891 5892 5892 5892 5893 5893 5893 5893 5893 5893 5893 5893 5893 5893 5893 5892 5892 5891